Location: Bessat
(45.8735°N, 1.9924°E)
Time: 08:30:39
(UTC+00:00)

SPOT 1/Viking Rocket - Pass Details

Date: 11 May 2021
Orbit: 776 x 794 km, 98.4° (Epoch: 20 June)

Event Time Altitude Azimuth Distance (km) Brightness Sun altitude
Exits shadow 21:23:34 19° 191° (SSW) 1,806 5.0 -18.1°
Maximum altitude 21:27:07 50° 260° (W) 1,003 4.2 -18.5°
Drops below altitude 10° 21:32:11 10° 336° (NNW) 2,359 7.2 -19.0°
Sets 21:34:35 0° 342° (NNW) 3,289 8.2 -19.2°
